DHL466 EDDV-EDDH

Flight info

Callsign DHL466
Flight time N/A
Altitude 21000
Route CEL7S/27R CEL Q282 DIRBO T902 RARUP RARUP3P
Aircraft A339/H-SADE1E2E3GHIJ3J5M1P2RWXY/LB2D1

Departure

Time 2026-05-04 19:12
Airport Hannover Airport (EDDV)

Arrival

Time N/A
Airport Hamburg Helmut Schmidt Airport (EDDH)
Time Latitude Longitude Altitude Speed Heading
2026-05-04 18:53 52.45996 9.69306 173 ft 0 kts 95°
2026-05-04 19:01 52.45997 9.69276 204 ft 3 kts 95°
2026-05-04 19:01 52.45999 9.69240 197 ft 2 kts 95°
2026-05-04 19:01 52.46001 9.69207 205 ft 6 kts 38°
2026-05-04 19:01 52.45989 9.69196 204 ft 0 kts
2026-05-04 19:02 52.45968 9.69190 204 ft 3 kts
2026-05-04 19:02 52.45947 9.69182 205 ft 3 kts 25°
2026-05-04 19:02 52.45927 9.69166 205 ft 3 kts 30°
2026-05-04 19:02 52.45908 9.69145 205 ft 3 kts 19°
2026-05-04 19:03 52.45887 9.69143 205 ft 3 kts 356°
2026-05-04 19:03 52.45865 9.69141 205 ft 3 kts 345°
2026-05-04 19:03 52.45858 9.69142 205 ft 0 kts 329°
2026-05-04 19:05 52.45858 9.69141 205 ft 0 kts 329°
2026-05-04 19:05 52.45887 9.69107 205 ft 14 kts 324°
2026-05-04 19:05 52.46012 9.68953 202 ft 29 kts 322°
2026-05-04 19:05 52.46164 9.68763 202 ft 23 kts 322°
2026-05-04 19:06 52.46244 9.68741 190 ft 5 kts 32°
2026-05-04 19:06 52.46265 9.68825 199 ft 13 kts 69°
2026-05-04 19:06 52.46313 9.69022 197 ft 21 kts 69°
2026-05-04 19:06 52.46367 9.69249 198 ft 21 kts 69°
2026-05-04 19:07 52.46418 9.69468 196 ft 20 kts 68°
2026-05-04 19:07 52.46469 9.69677 200 ft 20 kts 69°
2026-05-04 19:07 52.46516 9.69885 190 ft 20 kts 70°
2026-05-04 19:07 52.46543 9.70041 193 ft 0 kts 78°
2026-05-04 19:08 52.46550 9.70096 191 ft 10 kts 78°
2026-05-04 19:08 52.46569 9.70247 197 ft 15 kts 78°
2026-05-04 19:09 52.46616 9.70385 188 ft 12 kts 35°
2026-05-04 19:09 52.46675 9.70363 198 ft 7 kts 319°
2026-05-04 19:09 52.46682 9.70303 195 ft 5 kts 275°
2026-05-04 19:09 52.46684 9.70263 194 ft 0 kts 275°
2026-05-04 19:11 52.46685 9.70252 194 ft 8 kts 275°
2026-05-04 19:11 52.46703 9.69638 184 ft 99 kts 273°
2026-05-04 19:11 52.46740 9.68075 220 ft 169 kts 270°
2026-05-04 19:12 52.46803 9.66041 930 ft 187 kts 272°
2026-05-04 19:12 52.47133 9.61564 2494 ft 215 kts 294°
2026-05-04 19:12 52.48036 9.59589 3306 ft 219 kts 316°
2026-05-04 19:13 52.49215 9.57940 3783 ft 223 kts 321°
2026-05-04 19:13 52.50022 9.56896 3928 ft 224 kts 321°
2026-05-04 19:13 52.51347 9.55521 4256 ft 229 kts 339°
2026-05-04 19:13 52.52924 9.55180 5090 ft 228 kts
2026-05-04 19:14 52.54533 9.55274 5945 ft 235 kts 360°
2026-05-04 19:14 52.56164 9.55336 6730 ft 240 kts
2026-05-04 19:14 52.57745 9.56232 7489 ft 244 kts 33°
2026-05-04 19:14 52.58893 9.58283 8197 ft 247 kts 64°
2026-05-04 19:15 52.59315 9.61011 8913 ft 249 kts 90°
2026-05-04 19:15 52.59230 9.63941 9286 ft 266 kts 98°
2026-05-04 19:15 52.58957 9.68174 9619 ft 294 kts 97°
2026-05-04 19:15 52.58860 9.70477 9845 ft 299 kts 95°
2026-05-04 19:16 52.58798 9.73898 9945 ft 299 kts 92°
2026-05-04 19:16 52.58797 9.77272 9963 ft 299 kts 91°
2026-05-04 19:16 52.59127 9.80654 9965 ft 304 kts 71°
2026-05-04 19:16 52.60234 9.83736 9970 ft 326 kts 49°
2026-05-04 19:17 52.62068 9.86164 9943 ft 349 kts 28°
2026-05-04 19:17 52.64308 9.87437 9934 ft 332 kts
2026-05-04 19:17 52.66528 9.87719 9920 ft 307 kts
2026-05-04 19:17 52.68601 9.87894 9900 ft 296 kts
2026-05-04 19:18 52.70641 9.88278 9861 ft 300 kts
2026-05-04 19:18 52.72691 9.88913 9868 ft 299 kts 10°
2026-05-04 19:18 52.74686 9.89688 9861 ft 299 kts 12°
2026-05-04 19:18 52.76743 9.90564 9858 ft 300 kts 13°
2026-05-04 19:19 52.78769 9.91453 9860 ft 300 kts 13°
2026-05-04 19:19 52.80758 9.92327 9861 ft 299 kts 13°
2026-05-04 19:19 52.82780 9.93206 9863 ft 300 kts 13°
2026-05-04 19:19 52.84799 9.94081 9863 ft 299 kts 13°
2026-05-04 19:20 52.86821 9.94952 9861 ft 300 kts 13°
2026-05-04 19:20 52.88842 9.95822 9863 ft 300 kts 12°
2026-05-04 19:20 52.90862 9.96694 9864 ft 301 kts 12°
2026-05-04 19:20 52.92872 9.97564 9864 ft 301 kts 13°
2026-05-04 19:21 52.94887 9.98438 9970 ft 299 kts 12°
2026-05-04 19:21 52.96915 9.99318 10044 ft 300 kts 12°
2026-05-04 19:21 52.98942 10.00198 10061 ft 300 kts 13°
2026-05-04 19:21 53.00960 10.01076 10063 ft 300 kts 12°
2026-05-04 19:22 53.02981 10.01954 10071 ft 300 kts 12°
2026-05-04 19:22 53.05006 10.02835 10064 ft 300 kts 12°
2026-05-04 19:22 53.07033 10.03718 10060 ft 300 kts 12°
2026-05-04 19:22 53.09027 10.04588 10066 ft 300 kts 12°
2026-05-04 19:23 53.11045 10.05469 10066 ft 300 kts 12°
2026-05-04 19:23 53.13073 10.06354 10060 ft 300 kts 12°
2026-05-04 19:23 53.15101 10.07241 10059 ft 300 kts 12°
2026-05-04 19:23 53.17094 10.08114 10059 ft 300 kts 12°
2026-05-04 19:24 53.19119 10.09002 10060 ft 300 kts 12°
2026-05-04 19:24 53.21140 10.09888 10056 ft 300 kts 12°
2026-05-04 19:24 53.23162 10.10776 10067 ft 300 kts 12°
2026-05-04 19:24 53.25183 10.11663 10067 ft 300 kts 12°
2026-05-04 19:25 53.27203 10.12552 10067 ft 300 kts 12°
2026-05-04 19:25 53.29219 10.13440 10065 ft 300 kts 12°
2026-05-04 19:25 53.31262 10.14048 10073 ft 296 kts 357°
2026-05-04 19:25 53.33323 10.13902 9990 ft 297 kts 354°
2026-05-04 19:26 53.35385 10.13726 9542 ft 297 kts 354°
2026-05-04 19:26 53.37445 10.13547 8968 ft 295 kts 354°
2026-05-04 19:26 53.39459 10.13367 8404 ft 292 kts 354°
2026-05-04 19:26 53.41479 10.13180 7842 ft 289 kts 354°
2026-05-04 19:27 53.43474 10.12990 7307 ft 286 kts 354°
2026-05-04 19:27 53.45451 10.12798 6763 ft 282 kts 354°
2026-05-04 19:27 53.47401 10.12605 6208 ft 279 kts 354°
2026-05-04 19:27 53.49329 10.12410 5653 ft 274 kts 354°
2026-05-04 19:28 53.51191 10.12220 5280 ft 258 kts 354°
2026-05-04 19:28 53.52941 10.12046 5109 ft 243 kts 354°
2026-05-04 19:28 53.54585 10.11890 5013 ft 240 kts 354°
2026-05-04 19:28 53.56246 10.12233 5011 ft 244 kts 18°
2026-05-04 19:29 53.57659 10.13832 4992 ft 248 kts 47°
2026-05-04 19:29 53.58681 10.16187 4984 ft 250 kts 54°
2026-05-04 19:29 53.59682 10.18581 5010 ft 248 kts 54°
2026-05-04 19:29 53.60675 10.20962 5012 ft 249 kts 54°
2026-05-04 19:30 53.61670 10.23353 4990 ft 249 kts 54°
2026-05-04 19:30 53.62653 10.25715 4982 ft 249 kts 54°
2026-05-04 19:30 53.63648 10.28106 4988 ft 248 kts 54°
2026-05-04 19:30 53.64641 10.30504 5003 ft 249 kts 54°
2026-05-04 19:31 53.65635 10.32908 4986 ft 249 kts 54°
2026-05-04 19:31 53.66623 10.35304 4992 ft 249 kts 54°
2026-05-04 19:31 53.67614 10.37709 4984 ft 249 kts 54°
2026-05-04 19:31 53.68586 10.40077 4972 ft 249 kts 54°
2026-05-04 19:32 53.69574 10.42486 4969 ft 249 kts 54°
2026-05-04 19:32 53.70558 10.44888 4973 ft 250 kts 54°
2026-05-04 19:32 53.71546 10.47304 4972 ft 249 kts 54°
2026-05-04 19:32 53.72670 10.49501 4993 ft 246 kts 34°
2026-05-04 19:33 53.74213 10.50653 4980 ft 241 kts
2026-05-04 19:33 53.75844 10.50446 4966 ft 234 kts 337°
2026-05-04 19:33 53.77162 10.48962 4971 ft 227 kts 307°
2026-05-04 19:33 53.77831 10.46644 4972 ft 223 kts 278°
2026-05-04 19:34 53.77805 10.44025 4849 ft 224 kts 264°
2026-05-04 19:34 53.77652 10.41387 4432 ft 225 kts 264°
2026-05-04 19:34 53.77495 10.38750 3990 ft 225 kts 264°
2026-05-04 19:34 53.77335 10.36095 3529 ft 226 kts 264°
2026-05-04 19:35 53.77178 10.33505 3163 ft 220 kts 264°
2026-05-04 19:35 53.77018 10.30932 3033 ft 222 kts 264°
2026-05-04 19:35 53.76816 10.28351 2981 ft 220 kts 257°
2026-05-04 19:35 53.76229 10.25964 2989 ft 222 kts 240°
2026-05-04 19:36 53.75329 10.23839 2987 ft 223 kts 232°
2026-05-04 19:36 53.74335 10.21832 2991 ft 222 kts 231°
2026-05-04 19:36 53.73389 10.19890 2989 ft 205 kts 232°
2026-05-04 19:36 53.72503 10.18091 2882 ft 193 kts 232°
2026-05-04 19:37 53.71660 10.16365 2586 ft 189 kts 232°
2026-05-04 19:37 53.70840 10.14696 2341 ft 186 kts 232°
2026-05-04 19:37 53.70024 10.13032 2101 ft 181 kts 231°
2026-05-04 19:37 53.69250 10.11458 1846 ft 167 kts 232°
2026-05-04 19:38 53.68542 10.10020 1624 ft 152 kts 232°
2026-05-04 19:38 53.67853 10.08613 1498 ft 158 kts 232°
2026-05-04 19:38 53.67105 10.07079 1387 ft 183 kts 232°
2026-05-04 19:38 53.66314 10.05454 1027 ft 171 kts 232°
2026-05-04 19:39 53.65587 10.03995 749 ft 155 kts 233°
2026-05-04 19:39 53.64935 10.02662 495 ft 143 kts 233°
2026-05-04 19:39 53.64324 10.01437 265 ft 134 kts 233°
2026-05-04 19:39 53.63710 10.00191 119 ft 144 kts 232°
2026-05-04 19:40 53.63065 9.98876 51 ft 132 kts 229°
2026-05-04 19:40 53.62417 9.97575 384 ft 154 kts 232°
2026-05-04 19:40 53.61681 9.96046 1037 ft 182 kts 233°
2026-05-04 19:40 53.60864 9.94300 1861 ft 196 kts 233°
2026-05-04 19:41 53.59950 9.92403 2491 ft 214 kts 232°
2026-05-04 19:41 53.59012 9.90448 3167 ft 216 kts 232°
2026-05-04 19:41 53.58068 9.88498 3704 ft 219 kts 231°
2026-05-04 19:41 53.57094 9.86497 3540 ft 223 kts 232°
2026-05-04 19:42 53.56125 9.84492 3340 ft 216 kts 232°
2026-05-04 19:42 53.55172 9.82519 3427 ft 219 kts 232°
2026-05-04 19:42 53.54243 9.80518 3769 ft 216 kts 237°
2026-05-04 19:42 53.53792 9.78120 4358 ft 217 kts 269°
2026-05-04 19:43 53.54159 9.75681 5122 ft 224 kts 298°
2026-05-04 19:43 53.55134 9.73892 5691 ft 235 kts 323°
2026-05-04 19:43 53.56625 9.72913 5935 ft 243 kts 350°
2026-05-04 19:43 53.58254 9.73204 5997 ft 249 kts 18°